JES1299 SAWC-SAWH

Flight info

Callsign JES1299
Flight time 1h 2m
Altitude 37000
Route DEVIS2D DEVIS UW52 GAL UW42 GRA DCT DABLI DABLI1Q
Aircraft A320/M-SDE3FGHIRWY/LB1

Departure

Time 2026-04-26 19:00
Airport El Calafate - Commander Armando Tola International Airport (SAWC)

Arrival

Time 2026-04-26 20:02
Airport Ushuaia - Malvinas Argentinas International Airport (SAWH)
Time Latitude Longitude Altitude Speed Heading
2026-04-26 18:10 -50.28331 -72.05270 641 ft 0 kts 265°
2026-04-26 18:42 -50.28331 -72.05268 641 ft 2 kts 265°
2026-04-26 18:42 -50.28327 -72.05231 645 ft 4 kts 242°
2026-04-26 18:43 -50.28312 -72.05209 644 ft 4 kts 172°
2026-04-26 18:43 -50.28289 -72.05225 642 ft 4 kts 141°
2026-04-26 18:43 -50.28268 -72.05252 643 ft 4 kts 149°
2026-04-26 18:43 -50.28251 -72.05264 641 ft 4 kts 224°
2026-04-26 18:44 -50.28249 -72.05246 641 ft 4 kts 266°
2026-04-26 18:44 -50.28247 -72.05214 642 ft 4 kts 263°
2026-04-26 18:44 -50.28245 -72.05172 642 ft 4 kts 265°
2026-04-26 18:44 -50.28243 -72.05148 642 ft 0 kts 263°
2026-04-26 18:52 -50.28244 -72.05154 641 ft 4 kts 263°
2026-04-26 18:53 -50.28251 -72.05278 641 ft 14 kts 265°
2026-04-26 18:53 -50.28222 -72.05398 641 ft 13 kts 340°
2026-04-26 18:53 -50.28124 -72.05412 641 ft 11 kts 355°
2026-04-26 18:53 -50.28120 -72.05412 641 ft 0 kts 355°
2026-04-26 18:56 -50.28119 -72.05412 641 ft 1 kts 355°
2026-04-26 18:56 -50.28071 -72.05416 642 ft 12 kts
2026-04-26 18:57 -50.28019 -72.05312 643 ft 15 kts 83°
2026-04-26 18:57 -50.28012 -72.05188 643 ft 20 kts 85°
2026-04-26 18:57 -50.27994 -72.04878 645 ft 22 kts 84°
2026-04-26 18:57 -50.27978 -72.04619 644 ft 25 kts 84°
2026-04-26 18:58 -50.27961 -72.04328 642 ft 28 kts 84°
2026-04-26 18:58 -50.27945 -72.04072 641 ft 22 kts 85°
2026-04-26 18:58 -50.27930 -72.03816 640 ft 17 kts 84°
2026-04-26 18:58 -50.27951 -72.03698 641 ft 11 kts 116°
2026-04-26 18:59 -50.27960 -72.03583 642 ft 7 kts 65°
2026-04-26 18:59 -50.27918 -72.03596 642 ft 8 kts 282°
2026-04-26 18:59 -50.27920 -72.03621 642 ft 3 kts 264°
2026-04-26 18:59 -50.27928 -72.03780 640 ft 44 kts 265°
2026-04-26 19:00 -50.27979 -72.04625 644 ft 108 kts 264°
2026-04-26 19:00 -50.28062 -72.06034 747 ft 143 kts 265°
2026-04-26 19:00 -50.28151 -72.07546 1415 ft 138 kts 265°
2026-04-26 19:00 -50.28238 -72.09034 2120 ft 136 kts 266°
2026-04-26 19:01 -50.28328 -72.10577 2488 ft 152 kts 268°
2026-04-26 19:01 -50.28430 -72.12349 2771 ft 175 kts 268°
2026-04-26 19:01 -50.28546 -72.14362 3070 ft 197 kts 268°
2026-04-26 19:01 -50.28675 -72.16636 3398 ft 223 kts 268°
2026-04-26 19:02 -50.28822 -72.19184 3909 ft 246 kts 267°
2026-04-26 19:02 -50.28982 -72.21888 4814 ft 251 kts 267°
2026-04-26 19:02 -50.29144 -72.24615 5816 ft 252 kts 267°
2026-04-26 19:02 -50.29251 -72.26410 6551 ft 249 kts 267°
2026-04-26 19:03 -50.29466 -72.30031 7814 ft 251 kts 267°
2026-04-26 19:03 -50.29623 -72.32768 8691 ft 254 kts 268°
2026-04-26 19:03 -50.29782 -72.35543 9556 ft 258 kts 268°
2026-04-26 19:03 -50.30120 -72.38295 10340 ft 266 kts 254°
2026-04-26 19:04 -50.31014 -72.40885 11077 ft 278 kts 237°
2026-04-26 19:04 -50.32457 -72.42985 11821 ft 291 kts 218°
2026-04-26 19:04 -50.34222 -72.44632 12582 ft 297 kts 216°
2026-04-26 19:04 -50.36057 -72.46179 13325 ft 306 kts 205°
2026-04-26 19:05 -50.40399 -72.45680 14629 ft 338 kts 154°
2026-04-26 19:05 -50.42244 -72.43190 14784 ft 366 kts 126°
2026-04-26 19:05 -50.43435 -72.39539 14914 ft 388 kts 112°
2026-04-26 19:06 -50.44393 -72.35470 15049 ft 407 kts 108°
2026-04-26 19:06 -50.45252 -72.31182 15438 ft 416 kts 107°
2026-04-26 19:06 -50.46082 -72.26808 15924 ft 421 kts 107°
2026-04-26 19:06 -50.46938 -72.22380 16487 ft 426 kts 108°
2026-04-26 19:07 -50.47835 -72.17925 17046 ft 430 kts 109°
2026-04-26 19:07 -50.48776 -72.13442 17593 ft 435 kts 110°
2026-04-26 19:07 -50.49750 -72.08924 18136 ft 438 kts 110°
2026-04-26 19:07 -50.50743 -72.04379 18685 ft 441 kts 111°
2026-04-26 19:08 -50.51742 -71.99808 19212 ft 444 kts 111°
2026-04-26 19:08 -50.52742 -71.95198 19741 ft 447 kts 111°
2026-04-26 19:08 -50.53743 -71.90555 20296 ft 449 kts 111°
2026-04-26 19:08 -50.54739 -71.85889 20804 ft 451 kts 110°
2026-04-26 19:09 -50.55770 -71.81221 21288 ft 452 kts 115°
2026-04-26 19:09 -50.57159 -71.76783 21737 ft 451 kts 124°
2026-04-26 19:09 -50.58960 -71.72760 22203 ft 449 kts 134°
2026-04-26 19:09 -50.61031 -71.69062 22687 ft 451 kts 135°
2026-04-26 19:10 -50.63122 -71.65366 23141 ft 453 kts 135°
2026-04-26 19:10 -50.65194 -71.61693 23570 ft 456 kts 135°
2026-04-26 19:10 -50.67297 -71.57948 23942 ft 458 kts 135°
2026-04-26 19:10 -50.69406 -71.54169 24309 ft 460 kts 135°
2026-04-26 19:11 -50.71523 -71.50362 24653 ft 463 kts 135°
2026-04-26 19:11 -50.73648 -71.46534 25003 ft 465 kts 135°
2026-04-26 19:11 -50.75786 -71.42680 25370 ft 467 kts 135°
2026-04-26 19:11 -50.77941 -71.38796 25740 ft 470 kts 135°
2026-04-26 19:12 -50.80100 -71.34904 26118 ft 472 kts 135°
2026-04-26 19:12 -50.82270 -71.30987 26464 ft 475 kts 135°
2026-04-26 19:12 -50.84451 -71.27043 26818 ft 477 kts 135°
2026-04-26 19:12 -50.86637 -71.23076 27165 ft 480 kts 135°
2026-04-26 19:13 -50.88840 -71.19071 27515 ft 482 kts 135°
2026-04-26 19:13 -50.91047 -71.15058 27900 ft 483 kts 135°
2026-04-26 19:13 -50.93258 -71.11041 28417 ft 482 kts 135°
2026-04-26 19:13 -50.95426 -71.07091 28927 ft 480 kts 135°
2026-04-26 19:14 -50.97617 -71.03091 29445 ft 480 kts 134°
2026-04-26 19:14 -50.99632 -70.98862 29947 ft 483 kts 125°
2026-04-26 19:14 -51.01214 -70.94136 30394 ft 486 kts 116°
2026-04-26 19:14 -51.02009 -70.90729 30690 ft 488 kts 109°
2026-04-26 19:15 -51.02896 -70.83729 31272 ft 489 kts 98°
2026-04-26 19:15 -51.03315 -70.78367 31710 ft 489 kts 98°
2026-04-26 19:15 -51.03734 -70.73012 32187 ft 487 kts 99°
2026-04-26 19:15 -51.04151 -70.67679 32670 ft 485 kts 99°
2026-04-26 19:16 -51.04565 -70.62362 33132 ft 484 kts 99°
2026-04-26 19:16 -51.05029 -70.57073 33577 ft 482 kts 104°
2026-04-26 19:16 -51.05894 -70.51956 34021 ft 477 kts 113°
2026-04-26 19:16 -51.07209 -70.47151 34423 ft 472 kts 123°
2026-04-26 19:17 -51.08931 -70.42755 34806 ft 465 kts 131°
2026-04-26 19:17 -51.10901 -70.38699 35205 ft 462 kts 133°
2026-04-26 19:17 -51.12868 -70.34662 35601 ft 461 kts 133°
2026-04-26 19:17 -51.14821 -70.30631 35983 ft 459 kts 133°
2026-04-26 19:18 -51.16768 -70.26605 36366 ft 458 kts 133°
2026-04-26 19:18 -51.18708 -70.22585 36745 ft 457 kts 133°
2026-04-26 19:18 -51.20642 -70.18566 36975 ft 457 kts 133°
2026-04-26 19:19 -51.24515 -70.10517 36999 ft 461 kts 133°
2026-04-26 19:19 -51.28411 -70.02389 36999 ft 460 kts 133°
2026-04-26 19:20 -51.32299 -69.94264 37004 ft 460 kts 133°
2026-04-26 19:20 -51.36179 -69.86124 37008 ft 460 kts 133°
2026-04-26 19:21 -51.40056 -69.77956 37011 ft 461 kts 133°
2026-04-26 19:21 -51.43936 -69.69774 37017 ft 461 kts 133°
2026-04-26 19:22 -51.47808 -69.61571 37045 ft 461 kts 133°
2026-04-26 19:22 -51.51677 -69.53348 37044 ft 461 kts 133°
2026-04-26 19:23 -51.55523 -69.45153 37036 ft 462 kts 132°
2026-04-26 19:23 -51.59482 -69.37055 37017 ft 456 kts 140°
2026-04-26 19:24 -51.64416 -69.30951 37014 ft 441 kts 158°
2026-04-26 19:24 -51.72764 -69.25016 37013 ft 437 kts 162°
2026-04-26 19:25 -51.77413 -69.21752 37016 ft 438 kts 162°
2026-04-26 19:25 -51.83945 -69.17163 37026 ft 438 kts 162°
2026-04-26 19:26 -51.89542 -69.13230 37053 ft 438 kts 162°
2026-04-26 19:26 -51.95096 -69.09307 37046 ft 438 kts 162°
2026-04-26 19:27 -52.00690 -69.05356 37033 ft 439 kts 162°
2026-04-26 19:27 -52.06285 -69.01397 37029 ft 439 kts 162°
2026-04-26 19:28 -52.11883 -68.97427 37050 ft 439 kts 162°
2026-04-26 19:28 -52.17477 -68.93430 37034 ft 439 kts 162°
2026-04-26 19:29 -52.23073 -68.89422 37027 ft 439 kts 162°
2026-04-26 19:29 -52.28675 -68.85406 37018 ft 440 kts 162°
2026-04-26 19:30 -52.34277 -68.81382 37037 ft 440 kts 162°
2026-04-26 19:30 -52.38933 -68.78024 37027 ft 440 kts 162°
2026-04-26 19:31 -52.45486 -68.73289 37011 ft 440 kts 162°
2026-04-26 19:31 -52.51094 -68.69232 37003 ft 441 kts 162°
2026-04-26 19:32 -52.56704 -68.65157 37027 ft 441 kts 162°
2026-04-26 19:32 -52.62312 -68.61077 37008 ft 441 kts 162°
2026-04-26 19:33 -52.67924 -68.56980 37003 ft 441 kts 162°
2026-04-26 19:33 -52.73532 -68.52869 36987 ft 441 kts 162°
2026-04-26 19:34 -52.79139 -68.48744 36999 ft 441 kts 162°
2026-04-26 19:34 -52.84716 -68.44629 36987 ft 441 kts 162°
2026-04-26 19:35 -52.90326 -68.40496 36977 ft 441 kts 162°
2026-04-26 19:35 -52.95942 -68.36350 36975 ft 442 kts 162°
2026-04-26 19:36 -52.99693 -68.33565 36966 ft 442 kts 162°
2026-04-26 19:36 -53.07157 -68.28007 36968 ft 441 kts 162°
2026-04-26 19:37 -53.12752 -68.23832 36964 ft 441 kts 162°
2026-04-26 19:37 -53.18353 -68.19648 36954 ft 441 kts 162°
2026-04-26 19:38 -53.23959 -68.15435 36957 ft 442 kts 162°
2026-04-26 19:38 -53.29558 -68.11212 36968 ft 442 kts 162°
2026-04-26 19:39 -53.35166 -68.06970 36958 ft 442 kts 162°
2026-04-26 19:39 -53.39828 -68.03445 36956 ft 442 kts 162°
2026-04-26 19:40 -53.46350 -67.98499 36953 ft 442 kts 162°
2026-04-26 19:40 -53.51964 -67.94222 36963 ft 443 kts 162°
2026-04-26 19:41 -53.56670 -67.90624 36961 ft 443 kts 162°
2026-04-26 19:41 -53.61332 -67.87056 36959 ft 443 kts 162°
2026-04-26 19:42 -53.67899 -67.82008 36941 ft 443 kts 161°
2026-04-26 19:42 -53.70689 -67.79858 36534 ft 440 kts 162°
2026-04-26 19:42 -53.73454 -67.77720 36083 ft 432 kts 162°
2026-04-26 19:43 -53.76197 -67.75807 35272 ft 421 kts 169°
2026-04-26 19:43 -53.78986 -67.74622 34518 ft 407 kts 178°
2026-04-26 19:43 -53.81757 -67.74122 33773 ft 395 kts 184°
2026-04-26 19:43 -53.84481 -67.73845 32912 ft 390 kts 183°
2026-04-26 19:44 -53.87170 -67.73559 32065 ft 385 kts 183°
2026-04-26 19:44 -53.89841 -67.73270 31233 ft 381 kts 182°
2026-04-26 19:44 -53.92476 -67.72986 30429 ft 378 kts 182°
2026-04-26 19:44 -53.95086 -67.72703 29592 ft 374 kts 182°
2026-04-26 19:45 -53.97672 -67.72425 28722 ft 371 kts 182°
2026-04-26 19:45 -54.00233 -67.72150 27896 ft 367 kts 182°
2026-04-26 19:45 -54.02768 -67.71879 27091 ft 363 kts 182°
2026-04-26 19:45 -54.05255 -67.71612 26329 ft 360 kts 182°
2026-04-26 19:46 -54.07744 -67.71348 25555 ft 357 kts 182°
2026-04-26 19:46 -54.10214 -67.71087 24796 ft 354 kts 182°
2026-04-26 19:46 -54.12665 -67.70824 24056 ft 351 kts 182°
2026-04-26 19:46 -54.15097 -67.70563 23303 ft 349 kts 182°
2026-04-26 19:47 -54.17508 -67.70302 22468 ft 346 kts 182°
2026-04-26 19:47 -54.19126 -67.70124 21936 ft 343 kts 182°
2026-04-26 19:47 -54.22258 -67.69782 20950 ft 338 kts 182°
2026-04-26 19:47 -54.24596 -67.69528 20204 ft 335 kts 182°
2026-04-26 19:48 -54.26926 -67.69279 19473 ft 333 kts 182°
2026-04-26 19:48 -54.29220 -67.69033 18871 ft 327 kts 182°
2026-04-26 19:48 -54.31474 -67.68788 18284 ft 322 kts 182°
2026-04-26 19:48 -54.33692 -67.68545 17657 ft 317 kts 182°
2026-04-26 19:49 -54.35884 -67.68303 17120 ft 316 kts 182°
2026-04-26 19:49 -54.38092 -67.68065 16587 ft 319 kts 182°
2026-04-26 19:49 -54.40312 -67.67829 16085 ft 320 kts 182°
2026-04-26 19:49 -54.42521 -67.67595 15637 ft 318 kts 182°
2026-04-26 19:50 -54.44707 -67.67357 15078 ft 312 kts 181°
2026-04-26 19:50 -54.46848 -67.67117 14577 ft 305 kts 181°
2026-04-26 19:50 -54.48939 -67.66882 14113 ft 300 kts 181°
2026-04-26 19:50 -54.51040 -67.66654 13635 ft 305 kts 181°
2026-04-26 19:51 -54.53177 -67.66427 13160 ft 308 kts 181°
2026-04-26 19:51 -54.55305 -67.66194 12727 ft 308 kts 181°
2026-04-26 19:51 -54.57439 -67.65964 12429 ft 304 kts 181°
2026-04-26 19:51 -54.59541 -67.65732 12068 ft 302 kts 182°
2026-04-26 19:52 -54.61632 -67.65498 11710 ft 300 kts 182°
2026-04-26 19:52 -54.63690 -67.65268 11347 ft 299 kts 182°
2026-04-26 19:52 -54.65758 -67.65034 10992 ft 297 kts 182°
2026-04-26 19:52 -54.67820 -67.64801 10636 ft 296 kts 182°
2026-04-26 19:53 -54.69867 -67.64569 10274 ft 294 kts 182°
2026-04-26 19:53 -54.71908 -67.64338 9929 ft 294 kts 182°
2026-04-26 19:53 -54.73944 -67.64107 9673 ft 293 kts 182°
2026-04-26 19:53 -54.75970 -67.63882 9472 ft 291 kts 182°
2026-04-26 19:54 -54.77936 -67.64025 9094 ft 272 kts 199°
2026-04-26 19:54 -54.79595 -67.65140 8933 ft 244 kts 218°
2026-04-26 19:54 -54.80848 -67.66953 8527 ft 230 kts 235°
2026-04-26 19:54 -54.81664 -67.69269 7971 ft 224 kts 253°
2026-04-26 19:55 -54.81970 -67.71895 7426 ft 222 kts 267°
2026-04-26 19:55 -54.82081 -67.74591 6821 ft 225 kts 267°
2026-04-26 19:55 -54.82195 -67.77311 6234 ft 229 kts 267°
2026-04-26 19:55 -54.82313 -67.80033 5890 ft 222 kts 267°
2026-04-26 19:56 -54.82426 -67.82620 5700 ft 210 kts 268°
2026-04-26 19:56 -54.82534 -67.85156 5357 ft 212 kts 267°
2026-04-26 19:56 -54.82639 -67.87706 5045 ft 211 kts 268°
2026-04-26 19:56 -54.82743 -67.90263 4741 ft 213 kts 268°
2026-04-26 19:57 -54.82847 -67.92779 4454 ft 206 kts 268°
2026-04-26 19:57 -54.82949 -67.95214 4162 ft 198 kts 268°
2026-04-26 19:57 -54.83047 -67.97542 3900 ft 189 kts 269°
2026-04-26 19:57 -54.83141 -67.99779 3598 ft 182 kts 270°
2026-04-26 19:58 -54.83229 -68.01859 3326 ft 167 kts 268°
2026-04-26 19:58 -54.83308 -68.03731 3099 ft 145 kts 269°
2026-04-26 19:58 -54.83380 -68.05416 2891 ft 135 kts 271°
2026-04-26 19:58 -54.83445 -68.07035 2647 ft 136 kts 270°
2026-04-26 19:59 -54.83509 -68.08653 2457 ft 134 kts 270°
2026-04-26 19:59 -54.83573 -68.10287 2252 ft 137 kts 268°
2026-04-26 19:59 -54.83639 -68.11939 2041 ft 137 kts 267°
2026-04-26 19:59 -54.83704 -68.13598 1847 ft 138 kts 266°
2026-04-26 20:00 -54.83769 -68.15264 1656 ft 139 kts 266°
2026-04-26 20:00 -54.83834 -68.16931 1461 ft 138 kts 267°
2026-04-26 20:00 -54.83898 -68.18586 1273 ft 137 kts 268°
2026-04-26 20:00 -54.83964 -68.20224 1066 ft 136 kts 269°
2026-04-26 20:01 -54.84047 -68.21855 818 ft 137 kts 268°
2026-04-26 20:01 -54.84130 -68.23504 586 ft 139 kts 270°
2026-04-26 20:01 -54.84174 -68.25192 408 ft 141 kts 270°
2026-04-26 20:01 -54.84227 -68.26918 201 ft 145 kts 268°
2026-04-26 20:02 -54.84293 -68.28619 80 ft 130 kts 266°
2026-04-26 20:02 -54.84336 -68.29687 87 ft 61 kts 266°
2026-04-26 20:02 -54.84362 -68.30382 81 ft 37 kts 266°
2026-04-26 20:02 -54.84373 -68.30647 103 ft 24 kts 266°
2026-04-26 20:03 -54.84360 -68.30936 107 ft 11 kts 318°
2026-04-26 20:03 -54.84292 -68.30962 83 ft 9 kts 355°
2026-04-26 20:03 -54.84218 -68.30972 86 ft 5 kts 355°
2026-04-26 20:03 -54.84203 -68.30974 84 ft 4 kts 355°
2026-04-26 20:04 -54.84163 -68.30980 84 ft 8 kts 355°
2026-04-26 20:04 -54.84142 -68.30983 84 ft 1 kts 355°
2026-04-26 20:04 -54.84125 -68.30985 85 ft 4 kts 355°
2026-04-26 20:04 -54.84084 -68.30993 85 ft 8 kts 354°
2026-04-26 20:05 -54.84043 -68.30997 86 ft 1 kts 353°
2026-04-26 20:05 -54.84040 -68.31010 85 ft 2 kts 296°
2026-04-26 20:05 -54.84052 -68.31039 85 ft 4 kts 207°
2026-04-26 20:05 -54.84063 -68.31042 87 ft 0 kts 188°